Weather History for Reidsville, NC

Change the Weather History Date:

Saturday, November 23, 2013

  Actual Average (KGSO) Record (KGSO)
Temperature  
Mean Temperature 49 °F 48 °F  
Max Temperature 59 °F 58 °F 80 °F (1921)
Min Temperature 38 °F 37 °F 15 °F (1937)
Degree Days  
Heating Degree Days 16 17  
Month to date heating degree days 316  
Since 1 July heating degree days 549  
Cooling Degree Days 0 0  
Month to date cooling degree days 0  
Year to date cooling degree days 1480  
Moisture  
Dew Point 35 °F    
Average Humidity 55    
Maximum Humidity 97    
Minimum Humidity 26    
Precipitation  
Precipitation 0.00 in 0.10 in 0.99 in (1957)
Month to date precipitation 2.39  
Year to date precipitation 38.50  
Snow  
Snow 0.00 in 0.00 in 0.30 in (1929)
Month to date snowfall 0.1  
Since 1 July snowfall 0.1  
Since 1 September snowfall 0.1  
Snow Depth -    
Sea Level Pressure  
Sea Level Pressure 30.13 in    
Wind  
Wind Speed 4 mph (NNW)    
Max Wind Speed 12 mph    
Max Gust Speed 17 mph    
Visibility 10 miles    
Events      
T = Trace of Precipitation, MM = Missing Value Source: NWS Daily Summary

Daily Weather History Graph

Daily Weather History Graph

Search for Another Location

Airport:

Trip Planner

Search our weather history database for the weather conditions in past years. The results will help you decide how hot, cold, wet, or windy it might be!

Date:

Astronomy

Nov. 23, 2013 Rise Set
Actual Time 7:05 AM EST 5:06 PM EST
Civil Twilight 6:37 AM EST 5:34 PM EST
Nautical Twilight 6:05 AM EST 6:05 PM EST
Astronomical Twilight 5:34 AM EST 6:36 PM EST
Moon 10:29 PM EST (11/23) 11:24 AM EST (11/23)
Length of Visible Light 10h 57m
Length of Day
10h 01m
Waning Gibbous, 70% of the Moon is Illuminated
Nov 23
Waning Gibbous
Nov 25
Last Quarter
Dec 2
New
Dec 9
First Quarter
Dec 17
Full

Hourly Weather History & Observations

Time (EST) Temp. Windchill Dew Point Humidity Pressure Visibility Wind Dir Wind Speed Gust Speed Precip Events Conditions
12:15 AM 58.3 °F - 57.2 °F 96% 30.09 in 7.0 mi SW 3.5 mph - N/A   Overcast
12:35 AM 58.3 °F - 57.2 °F 96% 30.09 in 7.0 mi SW 4.6 mph - N/A   Overcast
12:55 AM 58.1 °F - 57.2 °F 97% 30.09 in 7.0 mi WSW 4.6 mph - N/A   Overcast
1:15 AM 58.1 °F - 57.2 °F 97% 30.09 in 7.0 mi WSW 5.8 mph - N/A   Overcast
1:35 AM 58.1 °F - 56.8 °F 96% 30.09 in 7.0 mi SW 5.8 mph - N/A   Overcast
1:55 AM 58.1 °F - 56.8 °F 96% 30.10 in 7.0 mi Calm Calm - N/A   Overcast
2:15 AM 57.4 °F - 56.3 °F 96% 30.10 in 5.0 mi Calm Calm - N/A   Overcast
2:35 AM 56.7 °F - 55.8 °F 97% 30.10 in 5.0 mi Calm Calm - N/A   Overcast
2:55 AM 57.0 °F - 55.2 °F 94% 30.11 in 10.0 mi NNW 5.8 mph - N/A   Overcast
3:15 AM 57.9 °F - 52.3 °F 82% 30.10 in 10.0 mi NNW 3.5 mph - N/A   Overcast
3:35 AM 57.4 °F - 51.1 °F 79% 30.10 in 10.0 mi Calm Calm - N/A   Mostly Cloudy
3:55 AM 56.5 °F - 50.2 °F 79% 30.09 in 10.0 mi Calm Calm - N/A   Clear
4:15 AM 56.1 °F - 49.3 °F 78% 30.09 in 10.0 mi Calm Calm - N/A   Clear
4:35 AM 55.4 °F - 48.6 °F 78% 30.09 in 10.0 mi Calm Calm - N/A   Mostly Cloudy
4:55 AM 55.4 °F - 48.2 °F 77% 30.09 in 10.0 mi NNW 3.5 mph - N/A   Scattered Clouds
5:15 AM 54.5 °F - 47.5 °F 77% 30.10 in 10.0 mi North 3.5 mph - N/A   Clear
5:35 AM 54.7 °F - 46.6 °F 74% 30.10 in 10.0 mi North 3.5 mph - N/A   Clear
5:55 AM 53.4 °F - 45.9 °F 76% 30.11 in 10.0 mi Calm Calm - N/A   Clear
6:15 AM 52.9 °F - 45.5 °F 76% 30.11 in 10.0 mi Calm Calm - N/A   Clear
6:35 AM 52.5 °F - 45.3 °F 76% 30.12 in 10.0 mi North 4.6 mph - N/A   Clear
6:55 AM 52.0 °F - 45.1 °F 77% 30.13 in 10.0 mi North 4.6 mph - N/A   Clear
7:15 AM 52.2 °F - 44.8 °F 76% 30.13 in 10.0 mi North 5.8 mph - N/A   Clear
7:35 AM 52.2 °F - 44.4 °F 75% 30.14 in 10.0 mi NNE 4.6 mph - N/A   Clear
7:55 AM 52.7 °F - 43.7 °F 71% 30.15 in 10.0 mi North 5.8 mph - N/A   Clear
8:15 AM 54.0 °F - 43.7 °F 68% 30.15 in 10.0 mi NNW 5.8 mph - N/A   Clear
8:35 AM 54.7 °F - 43.7 °F 66% 30.15 in 10.0 mi Calm Calm - N/A   Clear
8:55 AM 55.0 °F - 42.6 °F 63% 30.16 in 10.0 mi NNW 5.8 mph - N/A   Clear
9:15 AM 54.5 °F - 41.2 °F 61% 30.16 in 10.0 mi North 6.9 mph - N/A   Clear
9:35 AM 55.8 °F - 40.8 °F 57% 30.16 in 10.0 mi NNW 8.1 mph - N/A   Clear
9:55 AM 56.3 °F - 40.6 °F 56% 30.16 in 10.0 mi North 6.9 mph - N/A   Clear
10:15 AM 56.7 °F - 40.3 °F 54% 30.17 in 10.0 mi North 4.6 mph - N/A   Clear
10:35 AM 57.0 °F - 39.6 °F 52% 30.17 in 10.0 mi North 11.5 mph 16.1 mph N/A   Scattered Clouds
10:55 AM 57.0 °F - 38.7 °F 50% 30.16 in 10.0 mi North 6.9 mph - N/A   Scattered Clouds
11:15 AM 57.6 °F - 38.1 °F 48% 30.15 in 10.0 mi NW 8.1 mph - N/A   Clear
11:35 AM 59.5 °F - 37.8 °F 44% 30.14 in 10.0 mi North 5.8 mph - N/A   Scattered Clouds
11:55 AM 55.9 °F - 36.9 °F 49% 30.14 in 10.0 mi North 5.8 mph - N/A   Clear
12:15 PM 56.7 °F - 36.0 °F 46% 30.13 in 10.0 mi NNW 4.6 mph 17.3 mph N/A   Clear
12:35 PM 58.1 °F - 35.6 °F 43% 30.11 in 10.0 mi North 5.8 mph - N/A   Clear
12:55 PM 55.8 °F - 34.5 °F 45% 30.11 in 10.0 mi NNW 8.1 mph - N/A   Scattered Clouds
1:15 PM 56.7 °F - 34.2 °F 43% 30.10 in 10.0 mi NNW 8.1 mph - N/A   Mostly Cloudy
1:35 PM 55.6 °F - 32.9 °F 42% 30.09 in 10.0 mi NW 4.6 mph - N/A   Overcast
1:55 PM 55.9 °F - 34.2 °F 44% 30.09 in 10.0 mi NNW 3.5 mph - N/A   Overcast
2:15 PM 55.4 °F - 29.8 °F 38% 30.08 in 10.0 mi North 6.9 mph - N/A   Overcast
2:35 PM 55.2 °F - 31.6 °F 41% 30.09 in 10.0 mi NNW 4.6 mph - N/A   Mostly Cloudy
2:55 PM 55.6 °F - 28.9 °F 36% 30.09 in 10.0 mi North 9.2 mph - N/A   Scattered Clouds
3:15 PM 55.0 °F - 27.7 °F 35% 30.09 in 10.0 mi North 8.1 mph - N/A   Clear
3:35 PM 55.4 °F - 27.3 °F 34% 30.09 in 10.0 mi North 3.5 mph - N/A   Clear
3:55 PM 54.9 °F - 27.1 °F 34% 30.09 in 10.0 mi North 5.8 mph - N/A   Clear
4:15 PM 54.0 °F - 26.4 °F 35% 30.09 in 10.0 mi NNW 4.6 mph - N/A   Clear
4:35 PM 53.6 °F - 25.0 °F 33% 30.09 in 10.0 mi NNW 5.8 mph - N/A   Clear
4:55 PM 52.0 °F - 19.4 °F 28% 30.10 in 10.0 mi NNW 6.9 mph - N/A   Clear
5:15 PM 50.7 °F - 16.3 °F 26% 30.11 in 10.0 mi NW 5.8 mph - N/A   Clear
5:35 PM 49.5 °F - 15.4 °F 26% 30.11 in 10.0 mi NW 4.6 mph - N/A   Clear
5:55 PM 49.1 °F - 14.9 °F 26% 30.12 in 10.0 mi NNW 3.5 mph - N/A   Clear
6:15 PM 47.1 °F - 15.4 °F 28% 30.13 in 10.0 mi WNW 3.5 mph - N/A   Clear
6:35 PM 43.5 °F - 16.7 °F 34% 30.13 in 10.0 mi Calm Calm - N/A   Clear
6:55 PM 41.7 °F - 19.2 °F 41% 30.13 in 10.0 mi Calm Calm - N/A   Clear
7:15 PM 44.8 °F 41.6 °F 15.6 °F 31% 30.14 in 10.0 mi NW 5.8 mph - N/A   Clear
7:35 PM 46.0 °F 43.9 °F 12.9 °F 26% 30.14 in 10.0 mi NW 4.6 mph - N/A   Clear
7:55 PM 45.5 °F 42.5 °F 12.2 °F 26% 30.15 in 10.0 mi NW 5.8 mph - N/A   Clear
8:15 PM 45.0 °F 41.2 °F 13.1 °F 28% 30.16 in 10.0 mi NNW 6.9 mph - N/A   Clear
8:35 PM 44.2 °F 41.0 °F 16.0 °F 32% 30.16 in 10.0 mi NNW 5.8 mph - N/A   Clear
8:55 PM 43.7 °F 38.6 °F 18.9 °F 37% 30.16 in 10.0 mi NNW 9.2 mph 17.3 mph N/A   Clear
9:15 PM 43.0 °F 39.5 °F 20.1 °F 40% 30.17 in 10.0 mi NNW 5.8 mph - N/A   Clear
9:35 PM 42.4 °F 38.1 °F 19.6 °F 40% 30.17 in 10.0 mi NNW 6.9 mph - N/A   Clear
9:55 PM 42.3 °F 37.3 °F 19.8 °F 41% 30.18 in 10.0 mi NNW 8.1 mph - N/A   Clear
10:15 PM 41.9 °F 36.9 °F 18.9 °F 40% 30.18 in 10.0 mi NW 8.1 mph - N/A   Clear
10:35 PM 41.4 °F 36.8 °F 18.5 °F 40% 30.19 in 10.0 mi NNW 6.9 mph - N/A   Clear
10:55 PM 41.0 °F 36.4 °F 19.0 °F 41% 30.19 in 10.0 mi NW 6.9 mph 17.3 mph N/A   Clear
11:15 PM 40.1 °F 36.1 °F 18.5 °F 42% 30.21 in 10.0 mi NNW 5.8 mph - N/A   Clear
11:35 PM 39.4 °F 34.5 °F 18.3 °F 43% 30.22 in 10.0 mi North 6.9 mph - N/A   Clear
11:55 PM 38.3 °F 35.9 °F 17.8 °F 44% 30.22 in 10.0 mi NW 3.5 mph - N/A   Clear